N122J KOSU-KCLE

Flight info

Callsign N122J
Flight time 1h 35m
Altitude 5000
Route APE
Aircraft PA24/L-SDGRY/S

Departure

Time 2026-05-08 23:54
Airport The Ohio State University Airport - Don Scott Field (KOSU)

Arrival

Time 2026-05-09 01:30
Airport Cleveland Hopkins International Airport (KCLE)
Time Latitude Longitude Altitude Speed Heading
2026-05-08 23:32 40.07546 -83.07705 908 ft 0 kts 273°
2026-05-08 23:47 40.07546 -83.07709 908 ft 3 kts 273°
2026-05-08 23:47 40.07579 -83.07724 908 ft 7 kts
2026-05-08 23:47 40.07606 -83.07684 908 ft 8 kts 91°
2026-05-08 23:47 40.07605 -83.07597 909 ft 11 kts 90°
2026-05-08 23:48 40.07609 -83.07497 909 ft 12 kts 89°
2026-05-08 23:48 40.07610 -83.07374 908 ft 15 kts 89°
2026-05-08 23:48 40.07615 -83.07224 905 ft 16 kts 88°
2026-05-08 23:48 40.07622 -83.07082 905 ft 14 kts 84°
2026-05-08 23:49 40.07626 -83.06958 904 ft 14 kts 89°
2026-05-08 23:49 40.07630 -83.06839 901 ft 13 kts 86°
2026-05-08 23:49 40.07636 -83.06713 899 ft 14 kts 87°
2026-05-08 23:49 40.07641 -83.06600 900 ft 5 kts 86°
2026-05-08 23:50 40.07644 -83.06533 900 ft 15 kts 86°
2026-05-08 23:50 40.07647 -83.06406 898 ft 7 kts 102°
2026-05-08 23:50 40.07655 -83.06366 897 ft 3 kts 38°
2026-05-08 23:50 40.07657 -83.06365 897 ft 0 kts
2026-05-08 23:52 40.07662 -83.06365 897 ft 5 kts 352°
2026-05-08 23:53 40.07733 -83.06382 897 ft 13 kts 354°
2026-05-08 23:53 40.07782 -83.06420 896 ft 7 kts 285°
2026-05-08 23:53 40.07778 -83.06546 896 ft 44 kts 268°
2026-05-08 23:53 40.07752 -83.07181 976 ft 81 kts 268°
2026-05-08 23:54 40.07747 -83.07666 1135 ft 80 kts 270°
2026-05-08 23:54 40.07766 -83.08410 1420 ft 82 kts 272°
2026-05-08 23:54 40.07777 -83.09156 1737 ft 82 kts 271°
2026-05-08 23:55 40.07972 -83.10645 2321 ft 88 kts 315°
2026-05-08 23:55 40.08564 -83.10852 2635 ft 92 kts 354°
2026-05-08 23:55 40.09241 -83.10854 2913 ft 100 kts 355°
2026-05-08 23:55 40.09976 -83.10731 3046 ft 119 kts 15°
2026-05-08 23:56 40.10673 -83.10014 3090 ft 138 kts 56°
2026-05-08 23:56 40.11062 -83.08789 3067 ft 149 kts 78°
2026-05-08 23:56 40.11198 -83.07444 3045 ft 152 kts 90°
2026-05-08 23:56 40.11242 -83.06068 3107 ft 143 kts 94°
2026-05-08 23:57 40.11228 -83.04838 3406 ft 133 kts 97°
2026-05-08 23:57 40.11233 -83.03678 3711 ft 127 kts 90°
2026-05-08 23:57 40.11287 -83.02516 3962 ft 126 kts 94°
2026-05-08 23:57 40.11274 -83.01392 4281 ft 119 kts 99°
2026-05-08 23:58 40.11220 -83.00308 4509 ft 122 kts 97°
2026-05-08 23:58 40.11293 -82.99220 4782 ft 120 kts 81°
2026-05-08 23:58 40.11487 -82.98137 4981 ft 127 kts 78°
2026-05-08 23:58 40.11700 -82.96935 5024 ft 144 kts 80°
2026-05-08 23:59 40.11892 -82.95594 5027 ft 155 kts 83°
2026-05-08 23:59 40.12057 -82.94165 5044 ft 161 kts 84°
2026-05-08 23:59 40.12205 -82.92702 5069 ft 164 kts 85°
2026-05-08 23:59 40.12347 -82.91212 5099 ft 166 kts 85°
2026-05-09 00:00 40.12485 -82.89708 5112 ft 168 kts 85°
2026-05-09 00:00 40.12623 -82.88173 5066 ft 168 kts 85°
2026-05-09 00:00 40.12758 -82.86673 5014 ft 165 kts 85°
2026-05-09 00:00 40.12884 -82.85212 4993 ft 162 kts 86°
2026-05-09 00:01 40.13008 -82.83736 4999 ft 167 kts 86°
2026-05-09 00:01 40.13136 -82.82201 5002 ft 172 kts 86°
2026-05-09 00:01 40.13269 -82.80625 5000 ft 176 kts 85°
2026-05-09 00:01 40.13406 -82.79026 4991 ft 178 kts 85°
2026-05-09 00:02 40.13543 -82.77410 4988 ft 179 kts 85°
2026-05-09 00:02 40.13681 -82.75792 4993 ft 179 kts 85°
2026-05-09 00:02 40.13819 -82.74173 4995 ft 179 kts 85°
2026-05-09 00:02 40.13957 -82.72554 4995 ft 179 kts 85°
2026-05-09 00:03 40.14093 -82.70936 4995 ft 179 kts 85°
2026-05-09 00:03 40.14232 -82.69311 4995 ft 180 kts 85°
2026-05-09 00:03 40.14369 -82.67690 4995 ft 180 kts 85°
2026-05-09 00:03 40.14503 -82.66065 4995 ft 180 kts 86°
2026-05-09 00:04 40.14638 -82.64441 4996 ft 180 kts 85°
2026-05-09 00:04 40.14773 -82.62815 4995 ft 180 kts 85°
2026-05-09 00:04 40.14910 -82.61188 4995 ft 181 kts 85°
2026-05-09 00:04 40.15075 -82.59559 4997 ft 180 kts 80°
2026-05-09 00:05 40.15496 -82.58023 4996 ft 180 kts 62°
2026-05-09 00:05 40.16223 -82.56694 4996 ft 180 kts 45°
2026-05-09 00:05 40.17175 -82.55673 4996 ft 179 kts 29°
2026-05-09 00:05 40.18313 -82.55004 4996 ft 176 kts 12°
2026-05-09 00:06 40.19495 -82.54754 4996 ft 173 kts 357°
2026-05-09 00:06 40.20684 -82.54691 4994 ft 170 kts 359°
2026-05-09 00:06 40.21852 -82.54441 4994 ft 170 kts
2026-05-09 00:06 40.23003 -82.54036 4996 ft 172 kts 12°
2026-05-09 00:07 40.24139 -82.53546 5001 ft 172 kts 15°
2026-05-09 00:07 40.25260 -82.52983 5006 ft 173 kts 18°
2026-05-09 00:07 40.26371 -82.52375 5011 ft 173 kts 19°
2026-05-09 00:07 40.27481 -82.51750 5013 ft 174 kts 19°
2026-05-09 00:08 40.28590 -82.51119 5014 ft 174 kts 20°
2026-05-09 00:08 40.29699 -82.50482 5014 ft 174 kts 20°
2026-05-09 00:08 40.30808 -82.49844 5013 ft 174 kts 20°
2026-05-09 00:08 40.31904 -82.49216 5014 ft 174 kts 20°
2026-05-09 00:09 40.33016 -82.48578 5014 ft 174 kts 20°
2026-05-09 00:09 40.34129 -82.47940 5014 ft 175 kts 20°
2026-05-09 00:09 40.35246 -82.47294 5014 ft 175 kts 20°
2026-05-09 00:09 40.36362 -82.46649 5014 ft 175 kts 20°
2026-05-09 00:10 40.37480 -82.46007 5014 ft 175 kts 20°
2026-05-09 00:10 40.38597 -82.45366 5014 ft 175 kts 20°
2026-05-09 00:10 40.39710 -82.44729 5014 ft 174 kts 20°
2026-05-09 00:10 40.40823 -82.44091 5013 ft 174 kts 20°
2026-05-09 00:11 40.41939 -82.43449 5014 ft 174 kts 20°
2026-05-09 00:11 40.43036 -82.42816 5013 ft 174 kts 20°
2026-05-09 00:11 40.44147 -82.42175 5014 ft 174 kts 20°
2026-05-09 00:11 40.45256 -82.41534 5013 ft 174 kts 20°
2026-05-09 00:12 40.46366 -82.40892 5014 ft 174 kts 20°
2026-05-09 00:12 40.47474 -82.40251 5013 ft 174 kts 20°
2026-05-09 00:12 40.48583 -82.39610 5013 ft 174 kts 20°
2026-05-09 00:12 40.49690 -82.38972 5014 ft 174 kts 20°
2026-05-09 00:13 40.50802 -82.38328 5014 ft 174 kts 20°
2026-05-09 00:13 40.51912 -82.37686 5012 ft 174 kts 20°
2026-05-09 00:13 40.53020 -82.37042 5014 ft 174 kts 20°
2026-05-09 00:13 40.54129 -82.36407 5016 ft 174 kts 17°
2026-05-09 00:14 40.55311 -82.36350 5003 ft 171 kts 336°
2026-05-09 00:14 40.56161 -82.37297 5022 ft 161 kts 295°
2026-05-09 00:14 40.56337 -82.38689 5022 ft 154 kts 262°
2026-05-09 00:14 40.56234 -82.40068 5015 ft 150 kts 263°
2026-05-09 00:15 40.56145 -82.41429 5012 ft 148 kts 263°
2026-05-09 00:15 40.56050 -82.42776 5013 ft 147 kts 262°
2026-05-09 00:15 40.55955 -82.44114 5012 ft 147 kts 262°
2026-05-09 00:15 40.55861 -82.45451 5012 ft 147 kts 262°
2026-05-09 00:16 40.55763 -82.46788 5013 ft 146 kts 262°
2026-05-09 00:16 40.55663 -82.48120 5013 ft 146 kts 262°
2026-05-09 00:16 40.55566 -82.49452 5014 ft 146 kts 262°
2026-05-09 00:16 40.55470 -82.50786 5013 ft 147 kts 262°
2026-05-09 00:17 40.55486 -82.52118 4998 ft 148 kts 283°
2026-05-09 00:17 40.56140 -82.53147 4991 ft 154 kts 326°
2026-05-09 00:17 40.57213 -82.53421 5012 ft 162 kts 351°
2026-05-09 00:17 40.58335 -82.53565 5008 ft 166 kts 338°
2026-05-09 00:18 40.59218 -82.54461 5011 ft 158 kts 302°
2026-05-09 00:18 40.59876 -82.55597 5013 ft 155 kts 302°
2026-05-09 00:18 40.60537 -82.56711 5007 ft 155 kts 302°
2026-05-09 00:18 40.61198 -82.57831 5005 ft 155 kts 302°
2026-05-09 00:19 40.61859 -82.58951 5004 ft 155 kts 302°
2026-05-09 00:19 40.62520 -82.60070 5004 ft 155 kts 302°
2026-05-09 00:19 40.63183 -82.61190 5005 ft 155 kts 302°
2026-05-09 00:19 40.63864 -82.62288 5000 ft 154 kts 311°
2026-05-09 00:20 40.64839 -82.62812 4993 ft 160 kts 350°
2026-05-09 00:20 40.65971 -82.62866 5008 ft 164 kts 352°
2026-05-09 00:20 40.67121 -82.62929 5008 ft 166 kts 352°
2026-05-09 00:20 40.68281 -82.62986 5007 ft 167 kts 352°
2026-05-09 00:21 40.69450 -82.63042 5006 ft 168 kts 352°
2026-05-09 00:21 40.70615 -82.63104 5005 ft 167 kts 352°
2026-05-09 00:21 40.71782 -82.63167 5005 ft 168 kts 352°
2026-05-09 00:21 40.72956 -82.63230 5005 ft 168 kts 352°
2026-05-09 00:22 40.74123 -82.63291 5004 ft 168 kts 352°
2026-05-09 00:22 40.75293 -82.63354 5004 ft 168 kts 352°
2026-05-09 00:22 40.76461 -82.63420 5004 ft 168 kts 352°
2026-05-09 00:22 40.77628 -82.63485 5004 ft 168 kts 352°
2026-05-09 00:23 40.78786 -82.63551 5004 ft 168 kts 352°
2026-05-09 00:23 40.79954 -82.63617 5004 ft 168 kts 352°
2026-05-09 00:23 40.81122 -82.63681 5004 ft 168 kts 352°
2026-05-09 00:23 40.82277 -82.63556 4989 ft 168 kts 17°
2026-05-09 00:24 40.83206 -82.62604 5007 ft 172 kts 43°
2026-05-09 00:24 40.84069 -82.61494 5009 ft 174 kts 42°
2026-05-09 00:24 40.84946 -82.60374 5008 ft 176 kts 42°
2026-05-09 00:24 40.85825 -82.59249 5007 ft 176 kts 42°
2026-05-09 00:25 40.86705 -82.58117 5005 ft 177 kts 42°
2026-05-09 00:25 40.87586 -82.56985 5005 ft 177 kts 42°
2026-05-09 00:25 40.88468 -82.55851 5005 ft 177 kts 42°
2026-05-09 00:25 40.89351 -82.54717 5004 ft 177 kts 42°
2026-05-09 00:26 40.90218 -82.53602 5004 ft 176 kts 42°
2026-05-09 00:26 40.91096 -82.52473 5005 ft 176 kts 42°
2026-05-09 00:26 40.91974 -82.51344 5005 ft 176 kts 42°
2026-05-09 00:26 40.92853 -82.50215 5005 ft 176 kts 42°
2026-05-09 00:27 40.93732 -82.49085 5005 ft 176 kts 42°
2026-05-09 00:27 40.94611 -82.47959 5004 ft 176 kts 42°
2026-05-09 00:27 40.95492 -82.46830 5004 ft 176 kts 42°
2026-05-09 00:27 40.96372 -82.45701 5004 ft 176 kts 42°
2026-05-09 00:28 40.97251 -82.44573 5004 ft 176 kts 42°
2026-05-09 00:28 40.98129 -82.43446 5004 ft 176 kts 42°
2026-05-09 00:28 40.99006 -82.42321 5004 ft 176 kts 42°
2026-05-09 00:28 40.99883 -82.41194 5004 ft 176 kts 42°
2026-05-09 00:29 41.00760 -82.40068 5004 ft 176 kts 42°
2026-05-09 00:29 41.01640 -82.38939 5004 ft 176 kts 42°
2026-05-09 00:29 41.02509 -82.37824 5004 ft 176 kts 42°
2026-05-09 00:29 41.03387 -82.36699 5005 ft 176 kts 42°
2026-05-09 00:30 41.04267 -82.35571 5004 ft 176 kts 42°
2026-05-09 00:30 41.05144 -82.34445 5004 ft 176 kts 42°
2026-05-09 00:30 41.06023 -82.33317 5004 ft 176 kts 42°
2026-05-09 00:30 41.06902 -82.32191 5004 ft 176 kts 42°
2026-05-09 00:31 41.07783 -82.31062 5004 ft 176 kts 42°
2026-05-09 00:31 41.08664 -82.29935 5004 ft 176 kts 42°
2026-05-09 00:31 41.09544 -82.28807 5004 ft 176 kts 42°
2026-05-09 00:31 41.10425 -82.27677 4998 ft 176 kts 42°
2026-05-09 00:32 41.11307 -82.26547 4996 ft 176 kts 42°
2026-05-09 00:32 41.12187 -82.25427 4995 ft 175 kts 42°
2026-05-09 00:32 41.13064 -82.24309 4995 ft 175 kts 42°
2026-05-09 00:32 41.13943 -82.23186 4995 ft 175 kts 42°
2026-05-09 00:33 41.14808 -82.22080 4995 ft 175 kts 42°
2026-05-09 00:33 41.15685 -82.20960 4995 ft 175 kts 42°
2026-05-09 00:33 41.16564 -82.19840 4996 ft 175 kts 42°
2026-05-09 00:33 41.17486 -82.18791 4993 ft 175 kts 27°
2026-05-09 00:34 41.18631 -82.18313 4997 ft 171 kts 11°
2026-05-09 00:34 41.19775 -82.17876 4996 ft 171 kts 12°
2026-05-09 00:34 41.20916 -82.17442 4995 ft 171 kts 12°
2026-05-09 00:34 41.22062 -82.17010 4995 ft 171 kts 12°
2026-05-09 00:35 41.23205 -82.16580 4995 ft 171 kts 12°
2026-05-09 00:35 41.24350 -82.16149 4995 ft 171 kts 12°
2026-05-09 00:35 41.25492 -82.15720 4995 ft 171 kts 12°
2026-05-09 00:35 41.26635 -82.15289 4996 ft 171 kts 12°
2026-05-09 00:36 41.27779 -82.14858 4995 ft 171 kts 12°
2026-05-09 00:36 41.28922 -82.14428 4995 ft 171 kts 12°
2026-05-09 00:36 41.30064 -82.13997 4995 ft 171 kts 12°
2026-05-09 00:36 41.31208 -82.13565 4995 ft 171 kts 12°
2026-05-09 00:37 41.32352 -82.13134 4995 ft 171 kts 12°
2026-05-09 00:37 41.33493 -82.12707 4995 ft 170 kts 12°
2026-05-09 00:37 41.34632 -82.12286 4995 ft 170 kts 12°
2026-05-09 00:37 41.35770 -82.11864 4995 ft 170 kts 12°
2026-05-09 00:38 41.36908 -82.11443 4995 ft 170 kts 12°
2026-05-09 00:38 41.38048 -82.11022 4995 ft 170 kts 12°
2026-05-09 00:38 41.39185 -82.10603 4995 ft 170 kts 12°
2026-05-09 00:38 41.40321 -82.10182 4995 ft 169 kts 12°
2026-05-09 00:39 41.41419 -82.09622 4986 ft 170 kts 32°
2026-05-09 00:39 41.42275 -82.08553 4996 ft 172 kts 42°
2026-05-09 00:39 41.43149 -82.07452 4989 ft 173 kts 41°
2026-05-09 00:39 41.44023 -82.06343 4988 ft 174 kts 42°
2026-05-09 00:40 41.44898 -82.05230 4986 ft 174 kts 42°
2026-05-09 00:40 41.45773 -82.04116 4986 ft 174 kts 42°
2026-05-09 00:40 41.46648 -82.03002 4986 ft 174 kts 42°
2026-05-09 00:41 41.48396 -82.00775 4986 ft 174 kts 42°
2026-05-09 00:41 41.48988 -82.00022 4986 ft 174 kts 42°
2026-05-09 00:41 41.49863 -81.98911 4979 ft 174 kts 42°
2026-05-09 00:41 41.50736 -81.97803 4977 ft 173 kts 42°
2026-05-09 00:42 41.51611 -81.96694 4977 ft 173 kts 42°
2026-05-09 00:42 41.52470 -81.95606 4976 ft 173 kts 42°
2026-05-09 00:42 41.53340 -81.94502 4976 ft 172 kts 42°
2026-05-09 00:42 41.54208 -81.93399 4976 ft 172 kts 42°
2026-05-09 00:43 41.55073 -81.92300 4976 ft 171 kts 42°
2026-05-09 00:43 41.55934 -81.91206 4976 ft 171 kts 42°
2026-05-09 00:43 41.56796 -81.90111 4976 ft 170 kts 41°
2026-05-09 00:43 41.57657 -81.89017 4975 ft 170 kts 41°
2026-05-09 00:44 41.58513 -81.87930 4975 ft 169 kts 41°
2026-05-09 00:44 41.59363 -81.86848 4975 ft 169 kts 41°
2026-05-09 00:44 41.60204 -81.85780 4975 ft 168 kts 41°
2026-05-09 00:44 41.61050 -81.84705 4974 ft 167 kts 41°
2026-05-09 00:45 41.61892 -81.83635 4974 ft 167 kts 41°
2026-05-09 00:45 41.62731 -81.82569 4974 ft 166 kts 41°
2026-05-09 00:45 41.63566 -81.81507 4972 ft 165 kts 41°
2026-05-09 00:45 41.64398 -81.80448 4967 ft 165 kts 41°
2026-05-09 00:46 41.65229 -81.79391 4977 ft 165 kts 41°
2026-05-09 00:46 41.66068 -81.78323 4986 ft 168 kts 41°
2026-05-09 00:46 41.66921 -81.77242 4985 ft 170 kts 41°
2026-05-09 00:46 41.67784 -81.76147 4981 ft 171 kts 41°
2026-05-09 00:47 41.68651 -81.75046 4979 ft 172 kts 41°
2026-05-09 00:47 41.69520 -81.73942 4978 ft 172 kts 41°
2026-05-09 00:47 41.70385 -81.72844 4976 ft 172 kts 41°
2026-05-09 00:47 41.71251 -81.71746 4976 ft 171 kts 41°
2026-05-09 00:48 41.72115 -81.70652 4976 ft 171 kts 41°
2026-05-09 00:48 41.72977 -81.69560 4976 ft 170 kts 41°
2026-05-09 00:48 41.73838 -81.68470 4975 ft 170 kts 41°
2026-05-09 00:48 41.74695 -81.67384 4975 ft 169 kts 41°
2026-05-09 00:49 41.75548 -81.66303 4975 ft 169 kts 41°
2026-05-09 00:49 41.76398 -81.65223 4974 ft 168 kts 41°
2026-05-09 00:49 41.77232 -81.64165 4974 ft 167 kts 41°
2026-05-09 00:49 41.78085 -81.63081 4979 ft 170 kts 41°
2026-05-09 00:50 41.78946 -81.61988 4980 ft 171 kts 41°
2026-05-09 00:50 41.79812 -81.60889 4979 ft 172 kts 41°
2026-05-09 00:50 41.80680 -81.59788 4978 ft 172 kts 41°
2026-05-09 00:50 41.81550 -81.58684 4977 ft 172 kts 41°
2026-05-09 00:51 41.82419 -81.57584 4977 ft 171 kts 41°
2026-05-09 00:51 41.83281 -81.56490 4983 ft 171 kts 41°
2026-05-09 00:51 41.84139 -81.55391 4983 ft 170 kts 45°
2026-05-09 00:51 41.84604 -81.53964 4971 ft 170 kts 86°
2026-05-09 00:52 41.84303 -81.52471 4986 ft 167 kts 121°
2026-05-09 00:52 41.83757 -81.51097 4995 ft 167 kts 121°
2026-05-09 00:52 41.83213 -81.49710 4992 ft 168 kts 121°
2026-05-09 00:52 41.82659 -81.48320 4988 ft 169 kts 121°
2026-05-09 00:53 41.82109 -81.46946 4987 ft 169 kts 121°
2026-05-09 00:53 41.81550 -81.45554 4986 ft 170 kts 121°
2026-05-09 00:53 41.80991 -81.44160 4986 ft 170 kts 121°
2026-05-09 00:53 41.80432 -81.42767 4988 ft 170 kts 121°
2026-05-09 00:54 41.79873 -81.41373 4994 ft 170 kts 121°
2026-05-09 00:54 41.79316 -81.39975 4995 ft 170 kts 121°
2026-05-09 00:54 41.78759 -81.38573 4995 ft 170 kts 121°
2026-05-09 00:54 41.78201 -81.37171 4995 ft 170 kts 121°
2026-05-09 00:55 41.77645 -81.35772 4995 ft 170 kts 121°
2026-05-09 00:55 41.77087 -81.34369 4995 ft 170 kts 121°
2026-05-09 00:55 41.76529 -81.32965 4995 ft 171 kts 121°
2026-05-09 00:55 41.75970 -81.31562 4995 ft 171 kts 121°
2026-05-09 00:56 41.75412 -81.30161 4995 ft 171 kts 121°
2026-05-09 00:56 41.74854 -81.28757 4995 ft 171 kts 121°
2026-05-09 00:56 41.74295 -81.27354 4995 ft 171 kts 121°
2026-05-09 00:56 41.73743 -81.25967 4995 ft 171 kts 121°
2026-05-09 00:57 41.73183 -81.24563 4995 ft 171 kts 121°
2026-05-09 00:57 41.72623 -81.23157 4995 ft 171 kts 121°
2026-05-09 00:57 41.72062 -81.21751 4995 ft 171 kts 121°
2026-05-09 00:57 41.71503 -81.20347 4995 ft 171 kts 121°
2026-05-09 00:58 41.70942 -81.18939 4995 ft 171 kts 121°
2026-05-09 00:58 41.70384 -81.17536 4995 ft 171 kts 121°
2026-05-09 00:58 41.69824 -81.16128 4995 ft 171 kts 121°
2026-05-09 00:58 41.69264 -81.14722 4995 ft 171 kts 121°
2026-05-09 00:59 41.68777 -81.13279 4990 ft 171 kts 105°
2026-05-09 00:59 41.68952 -81.11746 4982 ft 172 kts 62°
2026-05-09 00:59 41.69835 -81.10688 4992 ft 170 kts 20°
2026-05-09 00:59 41.70596 -81.10512 5000 ft 168 kts 354°
2026-05-09 01:00 41.72010 -81.11175 5004 ft 161 kts 332°
2026-05-09 01:00 41.73039 -81.11767 4998 ft 161 kts 332°
2026-05-09 01:00 41.74064 -81.12370 4996 ft 161 kts 332°
2026-05-09 01:00 41.75085 -81.12978 4995 ft 161 kts 331°
2026-05-09 01:01 41.76105 -81.13588 4995 ft 160 kts 331°
2026-05-09 01:01 41.77121 -81.14197 4995 ft 160 kts 331°
2026-05-09 01:01 41.78141 -81.14808 4995 ft 160 kts 331°
2026-05-09 01:01 41.79157 -81.15419 4995 ft 160 kts 331°
2026-05-09 01:02 41.80173 -81.16028 4995 ft 160 kts 331°
2026-05-09 01:02 41.81179 -81.16633 4995 ft 160 kts 331°
2026-05-09 01:02 41.82196 -81.17243 4995 ft 160 kts 331°
2026-05-09 01:02 41.83213 -81.17854 4992 ft 160 kts 331°
2026-05-09 01:03 41.84232 -81.18467 4987 ft 160 kts 331°
2026-05-09 01:03 41.85250 -81.19080 4986 ft 161 kts 331°
2026-05-09 01:03 41.86272 -81.19693 4986 ft 161 kts 331°
2026-05-09 01:03 41.87295 -81.20308 4986 ft 161 kts 331°
2026-05-09 01:04 41.88312 -81.20931 4988 ft 161 kts 327°
2026-05-09 01:04 41.89027 -81.22021 4985 ft 157 kts 286°
2026-05-09 01:04 41.88964 -81.23430 4987 ft 153 kts 244°
2026-05-09 01:04 41.88188 -81.24356 4984 ft 154 kts 202°
2026-05-09 01:05 41.87131 -81.24318 4978 ft 158 kts 162°
2026-05-09 01:05 41.86170 -81.23552 4987 ft 163 kts 152°
2026-05-09 01:05 41.84242 -81.21912 4988 ft 164 kts 152°
2026-05-09 01:06 41.83293 -81.21087 4994 ft 164 kts 151°
2026-05-09 01:06 41.82333 -81.20250 4995 ft 165 kts 151°
2026-05-09 01:06 41.81372 -81.19410 4995 ft 165 kts 151°
2026-05-09 01:06 41.80413 -81.18572 4995 ft 165 kts 151°
2026-05-09 01:07 41.79451 -81.17731 4995 ft 165 kts 151°
2026-05-09 01:07 41.78487 -81.16889 4995 ft 165 kts 151°
2026-05-09 01:07 41.77526 -81.16049 4995 ft 165 kts 151°
2026-05-09 01:07 41.76560 -81.15204 4995 ft 165 kts 151°
2026-05-09 01:08 41.75598 -81.14363 4995 ft 165 kts 151°
2026-05-09 01:08 41.74634 -81.13521 4995 ft 165 kts 151°
2026-05-09 01:08 41.73671 -81.12680 4995 ft 165 kts 151°
2026-05-09 01:08 41.72710 -81.11841 4995 ft 165 kts 151°
2026-05-09 01:09 41.71745 -81.10999 4995 ft 165 kts 151°
2026-05-09 01:09 41.70782 -81.10158 4995 ft 165 kts 151°
2026-05-09 01:09 41.69820 -81.09318 4995 ft 165 kts 151°
2026-05-09 01:09 41.68856 -81.08475 4995 ft 165 kts 151°
2026-05-09 01:10 41.67892 -81.07633 4995 ft 165 kts 151°
2026-05-09 01:10 41.66860 -81.06991 4994 ft 165 kts 176°
2026-05-09 01:10 41.65797 -81.07356 4997 ft 158 kts 219°
2026-05-09 01:10 41.65216 -81.08547 4999 ft 153 kts 251°
2026-05-09 01:11 41.64866 -81.09885 4995 ft 152 kts 250°
2026-05-09 01:11 41.64511 -81.11207 4994 ft 151 kts 251°
2026-05-09 01:11 41.64170 -81.12510 4876 ft 148 kts 251°
2026-05-09 01:11 41.63838 -81.13784 4689 ft 146 kts 251°
2026-05-09 01:12 41.63511 -81.15072 4469 ft 147 kts 251°
2026-05-09 01:12 41.63185 -81.16369 4254 ft 146 kts 251°
2026-05-09 01:12 41.62869 -81.17641 4048 ft 143 kts 251°
2026-05-09 01:12 41.62557 -81.18921 3755 ft 147 kts 251°
2026-05-09 01:13 41.62243 -81.20222 3510 ft 147 kts 251°
2026-05-09 01:13 41.61932 -81.21527 3243 ft 148 kts 251°
2026-05-09 01:13 41.61625 -81.22832 3084 ft 143 kts 251°
2026-05-09 01:13 41.61333 -81.24093 3002 ft 145 kts 251°
2026-05-09 01:14 41.61035 -81.25396 3032 ft 146 kts 251°
2026-05-09 01:14 41.60736 -81.26711 3017 ft 150 kts 251°
2026-05-09 01:14 41.60427 -81.28060 2997 ft 151 kts 251°
2026-05-09 01:14 41.60121 -81.29398 3007 ft 151 kts 251°
2026-05-09 01:15 41.59812 -81.30747 3001 ft 152 kts 251°
2026-05-09 01:15 41.59503 -81.32098 2998 ft 152 kts 251°
2026-05-09 01:15 41.59194 -81.33446 2996 ft 152 kts 251°
2026-05-09 01:15 41.58947 -81.34814 2991 ft 152 kts 267°
2026-05-09 01:16 41.59324 -81.36110 2984 ft 155 kts 310°
2026-05-09 01:16 41.60274 -81.36753 2994 ft 157 kts 348°
2026-05-09 01:16 41.61361 -81.36956 3004 ft 159 kts 351°
2026-05-09 01:17 41.63551 -81.37360 2999 ft 160 kts 351°
2026-05-09 01:17 41.64657 -81.37556 2997 ft 161 kts 351°
2026-05-09 01:17 41.65725 -81.37957 2986 ft 161 kts 326°
2026-05-09 01:17 41.66353 -81.39138 2990 ft 157 kts 283°
2026-05-09 01:18 41.66258 -81.40525 2749 ft 151 kts 243°
2026-05-09 01:18 41.65662 -81.41610 2581 ft 140 kts 226°
2026-05-09 01:18 41.65008 -81.42591 2308 ft 142 kts 228°
2026-05-09 01:18 41.64395 -81.43566 2221 ft 131 kts 229°
2026-05-09 01:19 41.63821 -81.44514 2136 ft 133 kts 230°
2026-05-09 01:19 41.63237 -81.45498 2046 ft 138 kts 230°
2026-05-09 01:19 41.62623 -81.46537 1987 ft 144 kts 230°
2026-05-09 01:19 41.62004 -81.47583 2013 ft 144 kts 231°
2026-05-09 01:20 41.61379 -81.48639 2008 ft 145 kts 231°
2026-05-09 01:20 41.60752 -81.49700 2006 ft 146 kts 231°
2026-05-09 01:20 41.60167 -81.50807 2007 ft 147 kts 240°
2026-05-09 01:20 41.59778 -81.52074 2003 ft 148 kts 240°
2026-05-09 01:21 41.59074 -81.53070 2006 ft 147 kts 226°
2026-05-09 01:21 41.58405 -81.54110 2005 ft 148 kts 229°
2026-05-09 01:21 41.57743 -81.55136 2003 ft 147 kts 228°
2026-05-09 01:21 41.57075 -81.56176 2003 ft 148 kts 229°
2026-05-09 01:22 41.56407 -81.57217 2003 ft 148 kts 229°
2026-05-09 01:22 41.55741 -81.58257 1999 ft 148 kts 229°
2026-05-09 01:22 41.55099 -81.59328 1995 ft 148 kts 231°
2026-05-09 01:22 41.54537 -81.60478 1994 ft 149 kts 236°
2026-05-09 01:23 41.54014 -81.61674 1993 ft 149 kts 236°
2026-05-09 01:23 41.53493 -81.62866 1993 ft 149 kts 236°
2026-05-09 01:23 41.52971 -81.64063 1993 ft 149 kts 237°
2026-05-09 01:23 41.52450 -81.65256 1993 ft 149 kts 237°
2026-05-09 01:24 41.51931 -81.66447 1993 ft 149 kts 237°
2026-05-09 01:24 41.51409 -81.67642 1993 ft 149 kts 237°
2026-05-09 01:24 41.50889 -81.68836 1993 ft 149 kts 237°
2026-05-09 01:24 41.50370 -81.70031 1993 ft 149 kts 237°
2026-05-09 01:25 41.49834 -81.71190 1995 ft 149 kts 231°
2026-05-09 01:25 41.49171 -81.72241 1994 ft 148 kts 224°
2026-05-09 01:25 41.48509 -81.73250 1975 ft 134 kts 225°
2026-05-09 01:25 41.47941 -81.74119 1955 ft 115 kts 226°
2026-05-09 01:26 41.47440 -81.74894 1965 ft 110 kts 225°
2026-05-09 01:26 41.46930 -81.75686 1976 ft 115 kts 226°
2026-05-09 01:26 41.46423 -81.76475 1972 ft 106 kts 227°
2026-05-09 01:26 41.45948 -81.77210 1849 ft 107 kts 226°
2026-05-09 01:27 41.45489 -81.77934 1828 ft 98 kts 229°
2026-05-09 01:27 41.45084 -81.78593 1805 ft 81 kts 226°
2026-05-09 01:27 41.44855 -81.78948 1728 ft 76 kts 226°
2026-05-09 01:27 41.44508 -81.79510 1569 ft 79 kts 228°
2026-05-09 01:28 41.44188 -81.80056 1477 ft 74 kts 228°
2026-05-09 01:28 41.43854 -81.80577 1462 ft 74 kts 223°
2026-05-09 01:28 41.43519 -81.81082 1490 ft 71 kts 225°
2026-05-09 01:28 41.43059 -81.81782 1385 ft 77 kts 226°
2026-05-09 01:29 41.42829 -81.82141 1280 ft 73 kts 227°
2026-05-09 01:29 41.42515 -81.82637 1168 ft 71 kts 226°
2026-05-09 01:29 41.42188 -81.83164 1033 ft 75 kts 227°
2026-05-09 01:29 41.41857 -81.83691 923 ft 75 kts 227°
2026-05-09 01:30 41.41541 -81.84195 814 ft 65 kts 226°
2026-05-09 01:30 41.41287 -81.84590 789 ft 49 kts 227°
2026-05-09 01:30 41.41153 -81.84768 791 ft 13 kts 163°
2026-05-09 01:30 41.41102 -81.84718 790 ft 7 kts 144°
2026-05-09 01:31 41.41091 -81.84707 790 ft 0 kts 149°
2026-05-09 01:31 41.41090 -81.84706 790 ft 0 kts 151°
2026-05-09 01:32 41.41056 -81.84727 790 ft 11 kts 228°
2026-05-09 01:33 41.41032 -81.84762 790 ft 10 kts 214°
2026-05-09 01:33 41.40960 -81.84729 790 ft 14 kts 137°
2026-05-09 01:33 41.40881 -81.84641 790 ft 13 kts 146°
2026-05-09 01:33 41.40827 -81.84661 790 ft 8 kts 231°
2026-05-09 01:34 41.40815 -81.84680 790 ft 0 kts 226°
2026-05-09 01:35 41.40814 -81.84687 790 ft 1 kts 273°
2026-05-09 01:35 41.40824 -81.84754 790 ft 12 kts 300°
2026-05-09 01:36 41.40878 -81.84828 790 ft 10 kts 308°
2026-05-09 01:36 41.40868 -81.84890 790 ft 9 kts 249°
2026-05-09 01:36 41.40889 -81.84970 790 ft 10 kts 273°
2026-05-09 01:36 41.40851 -81.85055 789 ft 11 kts 229°
2026-05-09 01:37 41.40823 -81.85099 789 ft 6 kts 230°
2026-05-09 01:37 41.40793 -81.85147 789 ft 7 kts 229°
2026-05-09 01:37 41.40758 -81.85201 789 ft 8 kts 229°
2026-05-09 01:37 41.40712 -81.85273 789 ft 14 kts 230°
2026-05-09 01:38 41.40646 -81.85379 790 ft 15 kts 230°
2026-05-09 01:38 41.40576 -81.85487 790 ft 15 kts 227°
2026-05-09 01:38 41.40512 -81.85508 790 ft 10 kts 163°
2026-05-09 01:38 41.40440 -81.85475 790 ft 12 kts 161°
2026-05-09 01:39 41.40358 -81.85439 790 ft 13 kts 162°
2026-05-09 01:39 41.40265 -81.85399 790 ft 14 kts 162°
2026-05-09 01:39 41.40181 -81.85383 790 ft 10 kts 207°
2026-05-09 01:39 41.40124 -81.85385 790 ft 3 kts 141°
2026-05-09 01:40 41.40121 -81.85363 790 ft 0 kts 95°
2026-05-09 01:42 41.40121 -81.85362 790 ft 0 kts 95°